Location: Timmins
(48.4758°N, 81.3305°W)
Time: 10:51:16
(UTC-05:00)

ISS - Visible Passes

Search period start: 19 February 2018 00:00
Search period end: 01 March 2018 00:00
Orbit: 403 x 407 km, 51.6° (Epoch: 20 February)

Date Brightness Start Highest point End Pass type
(mag) Time Alt. Az. Time Alt. Az. Time Alt. Az.
26 Feb -1.2 06:35:04 10° S 06:37:33 20° SE 06:40:04 10° E visible
27 Feb -0.8 05:44:06 10° SSE 05:45:30 12° SE 05:46:56 10° ESE visible
28 Feb -2.5 06:26:09 10° SW 06:29:14 38° SSE 06:32:19 10° ENE visible
